Regional Weather Roundup
Issued by NWS

Home | Current Version | Previous Version | Text Only | Print | Product List | Glossary Off
Versions: 1 2 3 4 5 6 7 8 9 10 11 12 13 14 15 16 17 18 19 20 21 22 23 24 25 26 27 28 29 30 31 32 33 34 35 36 37 38 39 40 41 42 43 44 45 46 47 48 49 50

000
ASUS45 KCYS 021610
RWRWY

WYOMING REGIONAL WEATHER ROUNDUP
NATIONAL WEATHER SERVICE CHEYENNE WY
900 AM MST MON MAR 02 2015

NOTE:  "FAIR" INDICATES FEW OR NO CLOUDS BELOW 12,000 FEET
WITH NO SIGNIFICANT WEATHER AND/OR OBSTRUCTIONS TO VISIBILITY.

WYZ001-021700-
YELLOWSTONE NATIONAL PARK

CITY           SKY/WX    TMP DP  RH WIND       PRES   REMARKS
LK YELLOWSTONE   N/A      4  -3  73 CALM      29.82F
W YELLOWSTONE  NOT AVBL

$$
WYZ002>013-054>058-071-098>099-021700-
NORTHERN WYOMING

CITY           SKY/WX    TMP DP  RH WIND       PRES   REMARKS
JACKSON        CLOUDY     5   1  85 VRB6      29.89R WCI  -6
CODY           FAIR      21  10  63 NW3       29.81F
GREYBULL       FAIR      19  11  70 CALM      29.89S
WORLAND        FAIR      20  14  77 CALM      29.86F
SHERIDAN       FAIR      18   9  68 NW5       29.83F WCI  11
BUFFALO        FAIR      22   7  52 S5        29.80F WCI  16
GILLETTE       FAIR      24  17  74 S15       29.84F WCI  11
HULETT         FAIR      32  21  64 SW12G21   29.84F WCI  23
NEWCASTLE      FAIR      32  18  55 SE15      29.91S WCI  22

$$
WYZ014>020-022>026-101>103-021700-
CENTRAL WYOMING

CITY           SKY/WX    TMP DP  RH WIND       PRES   REMARKS
BIG PINEY      CLOUDY    20  15  81 CALM      29.85S
PINEDALE       PTSUNNY   14   9  79 NW9       29.85S WCI   2
DUBOIS         FAIR      18  10  73 NW15      29.79R WCI   3
LANDER         FAIR      14   8  77 NW3       29.85F
RIVERTON       FAIR      15  10  80 MISG      29.86F
CASPER         PTSUNNY   25  18  74 CALM      29.84F
DOUGLAS        FAIR      32  20  61 SE12      29.86F WCI  23

$$
WYZ021-027>030-104>119-021700-
SOUTHERN WYOMING

CITY           SKY/WX    TMP DP  RH WIND       PRES   REMARKS
EVANSTON       LGT SNOW  24  21  88 NE8       29.78S FOG     WCI  15
KEMMERER       LGT SNOW  25  21  86 NE8       29.80F WCI  16
FORT BRIDGER   LGT SNOW  23  22  97 NE5       29.83F WCI  16
ROCK SPRINGS   CLOUDY    24  21  88 E6        29.81F FOG     WCI  17
DIXON          SNOW      33  32  96 CALM      29.85F VSB 1/2
RAWLINS        LGT SNOW  25  22  88 CALM      29.83F VSB 3/4
SARATOGA       LGT SNOW  32  30  93 SE6       29.84F VSB 3/4 WCI  26
LARAMIE        LGT SNOW  24  22  91 SW5       29.84F FOG     WCI  18
CHEYENNE       CLOUDY    21  18  88 S9        29.90F FOG     WCI  11
TORRINGTON     PTSUNNY   33  21  61 S21G26    29.94F WCI  21
PINE BLUFFS    CLOUDY    28  21  74 S12       29.95F WCI  18

$$


USA.gov is the U.S. government's official web portal to all federal, state and local government web resources and services.